LNR652 LFPG-FMEE

Flight info

Callsign LNR652
Flight time N/A
Altitude 33000
Route OKASI DCT OKEKO DCT MOU DCT MADIV DCT MOKIP DCT TUFTA DCT KOGAS DCT MEDAM DCT NITAM DCT MOGBO DCT UPDIN DCT ARBUM/N0476F350 DCT BELIX DCT SALUN N705 BOPIX N710 TAKRI P751 LXR M999 JDW G650 RASKA/N0482F360 G650 ULONI UG650 KONET/N0482F370 DCT XADOX DCT DWA UN304 APKAK/N0477F380 UN304 DENLI/N0476F390 UN304 UVENA UVENA2R
Aircraft B77W/H-SDE1E2E3FGHIJ2J3J4J5M1RWXY/LB1D1

Departure

Time N/A
Airport Charles de Gaulle International Airport (LFPG)

Arrival

Time 2026-04-20 06:58
Airport Roland Garros Airport (FMEE)
Time Latitude Longitude Altitude Speed Heading
2026-04-20 05:43 -12.94462 51.77928 38965 ft 494 kts 161°
2026-04-20 05:43 -12.97615 51.79347 38961 ft 494 kts 161°
2026-04-20 05:44 -13.03903 51.82177 38964 ft 493 kts 161°
2026-04-20 05:44 -13.10191 51.85010 38963 ft 493 kts 161°
2026-04-20 05:45 -13.16467 51.87839 38963 ft 492 kts 161°
2026-04-20 05:45 -13.22695 51.90648 38964 ft 492 kts 161°
2026-04-20 05:46 -13.28964 51.93477 38962 ft 491 kts 161°
2026-04-20 05:46 -13.35226 51.96306 38962 ft 491 kts 161°
2026-04-20 05:47 -13.41483 51.99132 38970 ft 490 kts 161°
2026-04-20 05:47 -13.47735 52.01957 38966 ft 491 kts 160°
2026-04-20 05:48 -13.53946 52.04765 38973 ft 491 kts 160°
2026-04-20 05:48 -13.60212 52.07603 38978 ft 492 kts 160°
2026-04-20 05:49 -13.66484 52.10444 38980 ft 492 kts 160°
2026-04-20 05:49 -13.72768 52.13292 38985 ft 492 kts 160°
2026-04-20 05:50 -13.79006 52.16120 38979 ft 493 kts 160°
2026-04-20 05:50 -13.85292 52.18972 38981 ft 492 kts 160°
2026-04-20 05:51 -13.91566 52.21822 38980 ft 492 kts 160°
2026-04-20 05:51 -13.97835 52.24669 38983 ft 492 kts 160°
2026-04-20 05:52 -14.04058 52.27497 38983 ft 491 kts 160°
2026-04-20 05:52 -14.10321 52.30348 38989 ft 491 kts 160°
2026-04-20 05:53 -14.16571 52.33191 38990 ft 490 kts 160°
2026-04-20 05:53 -14.22818 52.36038 38991 ft 490 kts 160°
2026-04-20 05:54 -14.29016 52.38862 38998 ft 490 kts 160°
2026-04-20 05:54 -14.35255 52.41707 38986 ft 490 kts 160°
2026-04-20 05:55 -14.41493 52.44553 38985 ft 490 kts 160°
2026-04-20 05:55 -14.46684 52.46923 39016 ft 490 kts 160°
2026-04-20 05:56 -14.52953 52.49786 38989 ft 494 kts 160°
2026-04-20 05:56 -14.59278 52.52674 39000 ft 496 kts 160°
2026-04-20 05:57 -14.65570 52.55552 38993 ft 492 kts 160°
2026-04-20 05:57 -14.71762 52.58389 38986 ft 487 kts 160°
2026-04-20 05:58 -14.77951 52.61223 38990 ft 485 kts 160°
2026-04-20 05:58 -14.84108 52.64043 39006 ft 483 kts 160°
2026-04-20 05:59 -14.90257 52.66862 39018 ft 483 kts 160°
2026-04-20 05:59 -14.96399 52.69679 39010 ft 483 kts 160°
2026-04-20 06:00 -15.02558 52.72505 39016 ft 484 kts 160°
2026-04-20 06:00 -15.08690 52.75320 39005 ft 485 kts 160°
2026-04-20 06:01 -15.14869 52.78161 39006 ft 486 kts 160°
2026-04-20 06:01 -15.21073 52.81017 39001 ft 487 kts 160°
2026-04-20 06:02 -15.27273 52.83870 39027 ft 487 kts 160°
2026-04-20 06:02 -15.33466 52.86722 39009 ft 487 kts 160°
2026-04-20 06:03 -15.39610 52.89554 39014 ft 486 kts 160°
2026-04-20 06:03 -15.45796 52.92405 39011 ft 485 kts 160°
2026-04-20 06:04 -15.51972 52.95255 39026 ft 485 kts 160°
2026-04-20 06:04 -15.58137 52.98102 39018 ft 485 kts 160°
2026-04-20 06:05 -15.64261 53.00932 39011 ft 484 kts 160°
2026-04-20 06:05 -15.70423 53.03780 39032 ft 484 kts 160°
2026-04-20 06:06 -15.76585 53.06630 39011 ft 484 kts 160°
2026-04-20 06:06 -15.82750 53.09485 39032 ft 484 kts 160°
2026-04-20 06:07 -15.88916 53.12342 39031 ft 485 kts 160°
2026-04-20 06:07 -15.95048 53.15185 39026 ft 485 kts 160°
2026-04-20 06:08 -16.01223 53.18050 39026 ft 486 kts 160°
2026-04-20 06:08 -16.07396 53.20915 39031 ft 485 kts 159°
2026-04-20 06:09 -16.13551 53.23775 39026 ft 484 kts 159°
2026-04-20 06:09 -16.19654 53.26612 39027 ft 483 kts 159°
2026-04-20 06:10 -16.25820 53.29481 39035 ft 482 kts 159°
2026-04-20 06:10 -16.31937 53.32328 39037 ft 481 kts 159°
2026-04-20 06:11 -16.38024 53.35164 39037 ft 481 kts 159°
2026-04-20 06:11 -16.44144 53.38013 39038 ft 482 kts 159°
2026-04-20 06:12 -16.50276 53.40867 39039 ft 482 kts 159°
2026-04-20 06:12 -16.56405 53.43723 39035 ft 483 kts 159°
2026-04-20 06:13 -16.62502 53.46566 39039 ft 483 kts 159°
2026-04-20 06:13 -16.68627 53.49426 39049 ft 482 kts 159°
2026-04-20 06:14 -16.74735 53.52279 39047 ft 480 kts 159°
2026-04-20 06:14 -16.80822 53.55124 39055 ft 479 kts 158°
2026-04-20 06:15 -16.86898 53.57966 39055 ft 477 kts 158°
2026-04-20 06:15 -16.92954 53.60801 39054 ft 476 kts 158°
2026-04-20 06:16 -16.99013 53.63639 39056 ft 476 kts 158°
2026-04-20 06:16 -17.05052 53.66469 39054 ft 476 kts 158°
2026-04-20 06:17 -17.11055 53.69285 39057 ft 475 kts 158°
2026-04-20 06:17 -17.17098 53.72121 39055 ft 476 kts 158°
2026-04-20 06:18 -17.23143 53.74960 39058 ft 476 kts 158°
2026-04-20 06:18 -17.29183 53.77800 39055 ft 476 kts 158°
2026-04-20 06:19 -17.35235 53.80648 39057 ft 476 kts 158°
2026-04-20 06:19 -17.41245 53.83476 39055 ft 477 kts 158°
2026-04-20 06:20 -17.47304 53.86331 39056 ft 477 kts 158°
2026-04-20 06:20 -17.53378 53.89194 39055 ft 478 kts 158°
2026-04-20 06:21 -17.59441 53.92053 39055 ft 478 kts 158°
2026-04-20 06:21 -17.65517 53.94923 39060 ft 477 kts 158°
2026-04-20 06:22 -17.71532 53.97765 39065 ft 477 kts 158°
2026-04-20 06:22 -17.77594 54.00632 39065 ft 477 kts 158°
2026-04-20 06:23 -17.83646 54.03495 39064 ft 477 kts 158°
2026-04-20 06:23 -17.89704 54.06365 39067 ft 477 kts 158°
2026-04-20 06:24 -17.95759 54.09235 39065 ft 478 kts 158°
2026-04-20 06:24 -18.01813 54.12107 39064 ft 477 kts 158°
2026-04-20 06:25 -18.07832 54.14963 39065 ft 477 kts 158°
2026-04-20 06:25 -18.13895 54.17838 39069 ft 477 kts 158°
2026-04-20 06:26 -18.19945 54.20699 39078 ft 477 kts 158°
2026-04-20 06:26 -18.25993 54.23561 39094 ft 476 kts 158°
2026-04-20 06:27 -18.32039 54.26427 39102 ft 477 kts 158°
2026-04-20 06:27 -18.38054 54.29281 39102 ft 477 kts 158°
2026-04-20 06:28 -18.44115 54.32158 39102 ft 477 kts 158°
2026-04-20 06:28 -18.50179 54.35041 39101 ft 478 kts 158°
2026-04-20 06:29 -18.56245 54.37927 39101 ft 478 kts 158°
2026-04-20 06:29 -18.62285 54.40759 39094 ft 477 kts 160°
2026-04-20 06:30 -18.68475 54.43269 39093 ft 476 kts 162°
2026-04-20 06:30 -18.74703 54.45677 39093 ft 476 kts 162°
2026-04-20 06:31 -18.80920 54.48117 39063 ft 477 kts 162°
2026-04-20 06:31 -18.84041 54.49356 38631 ft 481 kts 161°
2026-04-20 06:31 -18.87160 54.50602 38168 ft 477 kts 161°
2026-04-20 06:32 -18.90252 54.51842 37665 ft 471 kts 161°
2026-04-20 06:32 -18.93308 54.53068 37162 ft 466 kts 161°
2026-04-20 06:32 -18.96323 54.54278 36682 ft 461 kts 161°
2026-04-20 06:32 -18.99274 54.55461 36180 ft 456 kts 161°
2026-04-20 06:33 -19.02229 54.56646 35666 ft 452 kts 160°
2026-04-20 06:33 -19.05161 54.57823 35124 ft 449 kts 160°
2026-04-20 06:33 -19.08075 54.58992 34682 ft 444 kts 160°
2026-04-20 06:33 -19.10944 54.60143 34198 ft 440 kts 160°
2026-04-20 06:34 -19.13793 54.61288 33704 ft 436 kts 160°
2026-04-20 06:34 -19.16630 54.62428 33207 ft 432 kts 160°
2026-04-20 06:34 -19.22205 54.64668 32218 ft 425 kts 160°
2026-04-20 06:35 -19.24963 54.65778 31719 ft 421 kts 160°
2026-04-20 06:35 -19.27664 54.66862 31234 ft 418 kts 160°
2026-04-20 06:35 -19.30377 54.67954 30750 ft 415 kts 160°
2026-04-20 06:35 -19.33069 54.69039 30252 ft 411 kts 159°
2026-04-20 06:36 -19.35733 54.70113 29777 ft 408 kts 159°
2026-04-20 06:36 -19.38384 54.71181 29283 ft 405 kts 159°
2026-04-20 06:36 -19.41011 54.72240 28788 ft 403 kts 159°
2026-04-20 06:36 -19.43625 54.73294 28306 ft 400 kts 159°
2026-04-20 06:37 -19.46181 54.74324 27828 ft 397 kts 159°
2026-04-20 06:37 -19.48790 54.75376 27342 ft 395 kts 159°
2026-04-20 06:37 -19.51319 54.76396 26880 ft 392 kts 159°
2026-04-20 06:37 -19.53861 54.77422 26392 ft 390 kts 159°
2026-04-20 06:38 -19.56387 54.78442 25932 ft 387 kts 159°
2026-04-20 06:38 -19.58903 54.79458 25464 ft 385 kts 159°
2026-04-20 06:38 -19.61399 54.80466 24997 ft 383 kts 159°
2026-04-20 06:38 -19.63885 54.81470 24541 ft 380 kts 159°
2026-04-20 06:39 -19.66350 54.82468 24093 ft 378 kts 159°
2026-04-20 06:39 -19.68802 54.83460 23635 ft 376 kts 159°
2026-04-20 06:39 -19.71207 54.84433 23193 ft 374 kts 159°
2026-04-20 06:39 -19.73636 54.85416 22734 ft 372 kts 159°
2026-04-20 06:40 -19.76047 54.86393 22296 ft 370 kts 159°
2026-04-20 06:40 -19.78445 54.87364 21844 ft 368 kts 159°
2026-04-20 06:40 -19.80826 54.88328 21409 ft 366 kts 159°
2026-04-20 06:40 -19.83204 54.89292 20969 ft 364 kts 159°
2026-04-20 06:41 -19.85565 54.90250 20529 ft 363 kts 159°
2026-04-20 06:41 -19.87917 54.91204 20087 ft 361 kts 159°
2026-04-20 06:41 -19.90261 54.92153 19655 ft 360 kts 159°
2026-04-20 06:41 -19.92595 54.93100 19225 ft 358 kts 159°
2026-04-20 06:42 -19.94902 54.94038 18780 ft 358 kts 159°
2026-04-20 06:42 -19.97230 54.94983 18339 ft 357 kts 159°
2026-04-20 06:42 -19.99548 54.95924 17899 ft 356 kts 159°
2026-04-20 06:42 -20.01864 54.96865 17473 ft 355 kts 159°
2026-04-20 06:43 -20.03385 54.97484 17178 ft 354 kts 159°
2026-04-20 06:43 -20.05683 54.98419 16750 ft 353 kts 159°
2026-04-20 06:43 -20.07978 54.99352 16309 ft 352 kts 159°
2026-04-20 06:43 -20.11001 55.00581 15739 ft 350 kts 159°
2026-04-20 06:44 -20.12536 55.01205 15449 ft 349 kts 159°
2026-04-20 06:44 -20.14800 55.02126 15019 ft 348 kts 159°
2026-04-20 06:44 -20.17036 55.03037 14598 ft 347 kts 159°
2026-04-20 06:44 -20.19278 55.03950 14181 ft 345 kts 158°
2026-04-20 06:45 -20.21522 55.04865 13752 ft 344 kts 158°
2026-04-20 06:45 -20.23753 55.05774 13332 ft 343 kts 158°
2026-04-20 06:45 -20.25981 55.06682 12915 ft 341 kts 158°
2026-04-20 06:45 -20.28199 55.07588 12502 ft 340 kts 158°
2026-04-20 06:46 -20.30409 55.08490 12077 ft 339 kts 158°
2026-04-20 06:46 -20.32613 55.09389 11612 ft 339 kts 158°
2026-04-20 06:46 -20.34813 55.10286 11191 ft 338 kts 158°
2026-04-20 06:46 -20.36977 55.11169 10785 ft 337 kts 158°
2026-04-20 06:47 -20.39162 55.12061 10380 ft 335 kts 157°
2026-04-20 06:47 -20.41325 55.12945 10172 ft 327 kts 157°
2026-04-20 06:47 -20.43430 55.13805 10017 ft 318 kts 157°
2026-04-20 06:47 -20.45479 55.14640 9853 ft 310 kts 157°
2026-04-20 06:48 -20.47467 55.15451 9706 ft 302 kts 157°
2026-04-20 06:48 -20.49420 55.16251 9469 ft 299 kts 157°
2026-04-20 06:48 -20.51344 55.17039 9340 ft 292 kts 156°
2026-04-20 06:48 -20.53197 55.17798 8881 ft 283 kts 156°
2026-04-20 06:49 -20.55024 55.18546 8298 ft 277 kts 156°
2026-04-20 06:49 -20.56767 55.19261 7917 ft 266 kts 156°
2026-04-20 06:49 -20.58501 55.19972 7593 ft 265 kts 156°
2026-04-20 06:49 -20.60220 55.20676 7279 ft 265 kts 156°
2026-04-20 06:50 -20.61934 55.21379 6967 ft 263 kts 156°
2026-04-20 06:50 -20.63639 55.22077 6660 ft 262 kts 156°
2026-04-20 06:50 -20.65337 55.22772 6341 ft 261 kts 156°
2026-04-20 06:50 -20.67014 55.23461 6034 ft 260 kts 156°
2026-04-20 06:51 -20.68702 55.24154 5712 ft 260 kts 156°
2026-04-20 06:51 -20.70386 55.24845 5385 ft 259 kts 156°
2026-04-20 06:51 -20.72068 55.25536 5077 ft 257 kts 156°
2026-04-20 06:51 -20.73728 55.26216 4859 ft 252 kts 156°
2026-04-20 06:52 -20.75345 55.26877 4712 ft 246 kts 156°
2026-04-20 06:52 -20.76906 55.27547 4572 ft 233 kts 149°
2026-04-20 06:52 -20.78064 55.28671 4368 ft 221 kts 122°
2026-04-20 06:52 -20.78856 55.30046 4145 ft 215 kts 119°
2026-04-20 06:53 -20.79566 55.31435 3908 ft 210 kts 116°
2026-04-20 06:53 -20.80223 55.32821 3611 ft 209 kts 116°
2026-04-20 06:53 -20.80868 55.34202 3332 ft 206 kts 115°
2026-04-20 06:53 -20.81499 55.35564 3062 ft 203 kts 116°
2026-04-20 06:54 -20.82116 55.36885 2787 ft 200 kts 115°
2026-04-20 06:54 -20.82731 55.38206 2514 ft 197 kts 116°
2026-04-20 06:54 -20.83343 55.39515 2269 ft 190 kts 115°
2026-04-20 06:54 -20.83898 55.40704 2047 ft 173 kts 115°
2026-04-20 06:55 -20.84409 55.41806 1796 ft 158 kts 116°
2026-04-20 06:55 -20.84873 55.42803 1603 ft 141 kts 116°
2026-04-20 06:55 -20.85288 55.43690 1448 ft 131 kts 115°
2026-04-20 06:55 -20.85694 55.44564 1272 ft 130 kts 115°
2026-04-20 06:56 -20.86096 55.45437 1083 ft 130 kts 115°
2026-04-20 06:56 -20.86496 55.46300 936 ft 130 kts 117°
2026-04-20 06:56 -20.86905 55.47145 773 ft 129 kts 115°
2026-04-20 06:56 -20.87305 55.48016 583 ft 131 kts 115°
2026-04-20 06:57 -20.87719 55.48902 404 ft 134 kts 116°
2026-04-20 06:57 -20.88130 55.49795 241 ft 133 kts 116°
2026-04-20 06:57 -20.88551 55.50695 85 ft 136 kts 116°
2026-04-20 06:57 -20.88942 55.51532 60 ft 107 kts 116°
2026-04-20 06:58 -20.89183 55.52045 63 ft 45 kts 116°
2026-04-20 06:58 -20.89258 55.52205 71 ft 10 kts 117°
2026-04-20 06:58 -20.89303 55.52225 64 ft 6 kts 204°
2026-04-20 06:58 -20.89343 55.52206 84 ft 6 kts 205°
2026-04-20 06:59 -20.89382 55.52185 91 ft 6 kts 206°
2026-04-20 06:59 -20.89413 55.52149 91 ft 9 kts 259°
2026-04-20 06:59 -20.89389 55.52083 94 ft 11 kts 297°
2026-04-20 06:59 -20.89351 55.52008 95 ft 12 kts 298°
2026-04-20 07:00 -20.89310 55.51920 93 ft 14 kts 296°
2026-04-20 07:00 -20.89264 55.51821 93 ft 16 kts 296°
2026-04-20 07:00 -20.89213 55.51711 92 ft 17 kts 296°
2026-04-20 07:00 -20.89157 55.51595 91 ft 18 kts 297°
2026-04-20 07:01 -20.89100 55.51474 83 ft 15 kts 296°
2026-04-20 07:01 -20.89056 55.51380 84 ft 15 kts 296°
2026-04-20 07:01 -20.89019 55.51300 84 ft 6 kts 296°
2026-04-20 07:01 -20.89015 55.51276 81 ft 2 kts 250°
2026-04-20 07:02 -20.89027 55.51266 82 ft 3 kts 220°
2026-04-20 07:02 -20.89045 55.51251 81 ft 4 kts 212°
2026-04-20 07:02 -20.89068 55.51238 79 ft 2 kts 207°
2026-04-20 07:02 -20.89071 55.51236 84 ft 0 kts 207°